Date,TemperatureHighF,TemperatureAvgF,TemperatureLowF,DewpointHighF,DewpointAvgF,DewpointLowF,HumidityHigh,HumidityAvg,HumidityLow,PressureMaxIn,PressureMinIn,WindSpeedMaxMPH,WindSpeedAvgMPH,GustSpeedMaxMPH,PrecipitationSumIn
2014-1-1,49.0,33.6,23.0,26.0,21.2,19.0,89,64,34,0.00,40.00,14,3,21,0.00
2014-1-2,39.0,34.0,28.0,37.0,29.9,24.0,100,85,69,0.00,40.00,9,2,13,0.40
2014-1-3,28.0,19.8,14.0,16.0,5.3,2.0,83,54,37,0.00,40.00,28,11,37,0.02
2014-1-4,36.0,23.1,12.0,18.0,10.2,-99.9,90,63,34,0.00,40.00,12,3,15,0.00
2014-1-5,40.0,33.4,27.0,40.0,29.8,20.0,100,87,65,0.00,40.00,8,2,10,1.03
2014-1-6,46.0,27.9,5.0,46.0,16.8,-13.0,100,64,42,0.00,40.00,18,10,26,0.20
2014-1-7,18.0,9.0,1.0,2.0,-8.3,-13.0,61,46,31,0.00,40.00,18,8,26,0.01
2014-1-8,42.0,23.8,7.0,15.0,7.9,2.0,89,56,27,0.00,40.00,9,3,13,0.00
2014-1-9,46.0,32.6,24.0,22.0,18.4,15.0,79,57,33,0.00,40.00,6,2,8,0.00
2014-1-10,39.0,36.2,33.0,39.0,32.3,19.0,100,88,45,0.00,40.00,5,2,7,1.60
2014-1-11,55.0,46.8,38.0,53.0,42.2,-99.9,100,89,56,0.00,40.00,14,5,20,1.24
2014-1-12,55.0,45.8,39.0,34.0,29.7,26.0,65,54,35,0.00,40.00,16,7,28,0.03
2014-1-13,53.0,42.2,29.0,39.0,32.9,27.0,97,71,48,0.00,40.00,12,3,15,0.01
2014-1-14,52.0,45.0,36.0,44.0,39.1,30.0,100,81,47,0.00,40.00,11,4,16,0.56
2014-1-15,45.0,37.4,30.0,35.0,30.7,21.0,97,77,57,0.00,40.00,13,5,17,0.02
2014-1-16,39.0,32.0,23.0,22.0,16.7,13.0,74,54,34,0.00,40.00,13,4,19,0.00
2014-1-17,49.0,37.6,28.0,34.0,23.9,19.0,97,60,32,0.00,40.00,11,5,15,0.04
2014-1-18,32.0,25.6,20.0,30.0,14.1,8.0,90,62,44,0.00,40.00,14,6,20,0.04
2014-1-19,44.0,35.2,26.0,27.0,22.4,17.0,69,59,48,0.00,40.00,13,5,18,0.00
2014-1-20,58.0,46.2,35.0,26.0,23.8,21.0,66,43,24,0.00,40.00,14,6,24,0.00
2014-1-21,38.0,32.3,21.0,33.0,27.9,12.0,100,85,63,0.00,40.00,14,5,18,0.63
2014-1-22,20.0,16.4,11.0,12.0,1.3,-7.0,73,52,34,0.00,40.00,15,6,22,0.35
2014-1-23,23.0,18.8,9.0,13.0,4.3,-4.0,69,53,41,0.00,40.00,15,7,20,0.00
2014-1-24,25.0,13.9,4.0,-1.0,-4.3,-7.0,62,46,25,0.00,40.00,10,5,15,0.00
2014-1-25,35.0,26.0,17.0,23.0,8.7,-99.9,76,50,37,0.00,40.00,18,11,26,0.00
2014-1-26,46.0,32.6,20.0,19.0,7.6,-2.0,65,36,22,0.00,40.00,17,8,23,0.00
2014-1-27,54.0,33.8,19.0,33.0,11.4,-7.0,64,41,22,0.00,40.00,21,10,25,0.00
2014-1-28,19.0,15.1,12.0,14.0,2.3,-7.0,95,60,36,0.00,40.00,17,6,22,0.46
2014-1-29,24.0,15.5,8.0,14.0,-1.9,-10.0,95,49,29,0.00,40.00,12,4,19,0.36
2014-1-30,32.0,17.2,3.0,9.0,2.6,-1.0,82,56,27,0.00,40.00,9,2,11,0.00
2014-1-31,52.0,34.5,19.0,19.0,12.6,8.0,78,45,19,0.00,40.00,7,2,9,0.00